Regional Weather Roundup
Issued by NWS Newport/Morehead, NC

Current Version | Previous Version | Graphics & Text | Print | Product List | Glossary Off
Versions: 1 2 3 4 5 6 7 8 9 10 11 12 13 14 15 16 17 18 19 20 21 22 23 24 25 26 27 28 29 30 31 32 33 34 35 36 37 38 39 40 41 42 43 44 45 46 47 48 49 50

000
ASUS42 KMHX 181122
RWRMHX
WEATHER ROUNDUP FOR EASTERN NORTH CAROLINA
NATIONAL WEATHER SERVICE NEWPORT/MOREHEAD CITY NC
600 AM EST THU DEC 18 2014

NOTE: "FAIR" INDICATES FEW OR NO CLOUDS BELOW 12,000 FEET
WITH NO SIGNIFICANT WEATHER AND/OR OBSTRUCTIONS TO VISIBILITY

NCZ015>017-031-032-045>047-102-103-181200-
NORTH COAST

CITY           SKY/WX    TMP DP  RH WIND       PRES   REMARKS
EDENTON          N/A     34  32  92 N3        30.14R
ELIZABETH CITY CLEAR     39  29  67 NW6       30.13R
KITTY HAWK     SUNNY     42  33  70 N9        30.09R
MANTEO         CLEAR     42  36  78 N12G17    30.11R

$$

NCZ045>047-081-094-103-104-181200-
CENTRAL COAST

CITY           SKY/WX    TMP DP  RH WIND       PRES   REMARKS
FRISCO         CLEAR     45  40  82 N8        30.10R
SWANQUARTER      N/A     37 N/A N/A VRB1      30.09R

$$

NCZ095-097-098-100-101-181200-
SOUTHERN COAST

CITY           SKY/WX    TMP DP  RH WIND       PRES   REMARKS
BEAUFORT       PTCLDY    43  34  70 N8        30.11R
CEDAR ISLAND     N/A     46 N/A N/A N15       30.15R
JACKSONVILLE   PTCLDY    43  33  68 N8        30.12R
PINEY ISLAND   NOT AVBL
WILMINGTON     PTCLDY    38  36  92 NE5       30.11R


$$

NCZ011>013-027>030-043-044-078>080-089-090>093-098-181200-
COASTAL PLAIN

CITY           SKY/WX    TMP DP  RH WIND       PRES   REMARKS
AHOSKIE        CLEAR     30  28  94 CALM      30.15R
CLINTON        CLEAR     38  35  91 CALM      30.14R
ELIZABETHTOWN  CLEAR     37  37  97 CALM      30.12R
GOLDSBORO      CLEAR     39  37  94 CALM      30.12R
GREENVILLE     CLEAR     34  32  93 N5        30.15R
HAVELOCK       CLEAR     43  33  68 N7        30.12R
KENANSVILLE    CLEAR     33  33 100 CALM      30.15R
KINSTON        NOT AVBL
NEW BERN       PTCLDY    41  32  70 NW3       30.13R
RICHLANDS      PTCLDY    32  28  86 CALM      30.14R
ROCKY MOUNT    CLEAR     33  27  78 CALM      30.14R
WASHINGTON     CLEAR     35  31  85 N5        30.14R
WHITEVILLE     CLEAR     37  35  91 N3        30.12R

$$

AMZ130-135-150-152-154-156-158-170-250-252-270-ANZ085-086-088-633-658-670-181200-
MARINE OBSERVATIONS

STATION/POSITION TIME  TEMP    WIND        PRES    WAVE   SWELL
                       AIR SEA DIR/SP/G            HT/PER HT/PER
                 (UTC) (F)     (DEG/KT/KT) (MB)    (FT/S) (FT/S)
CHESAPEAKE LIGHT 1100   41     350/ 17/ 18 1020.1
64 E VA BEACH    1100   45 54  340/ 21/ 25 1017.8    5/ 6   2/10
DUCK             1100   43 49  360/ 16/ 19 1018.5
2 E DUCK         1100      49                N/A     3/ 4
10 NE DUCK       1100      51                N/A     4/ 5
OREGON INLET     1100   44 51  350/  9/ 14 1019.1
13E OREGON INLT  1100      53                N/A     3/ 4
HATTERAS CG      1100   47 54  360/ 14/ 16 1019.4
DIAMOND BUOY     1100   51                 1018.6    3/ 4
17 S OCRACOKE    NOT AVBL
CAPE LOOKOUT     1100   47     350/  9/ 10 1019.3
BEAUFORT LAB     1100   46 54   10/ 10/ 13 1018.6
30 SE NEW RIVER  1100   54 60  360/ 16/ 17 1019.4    2/ 7   2/ 7
5 SE WRIGHTSVLE  NOT AVBL
225 S CAPE HAT   1050   69 72  280/ 12/ 14 1018.3    4/ 7   3/ 7
41 SE CHARLESTON 1100   60 73  300/  8/ 12 1019.0    2/11   2/11

$$


USA.gov is the U.S. government's official web portal to all federal, state and local government web resources and services.